Location: Pl�tzky
(52.0521°N, 11.8020°E)
Time: 09:51:28
(UTC+00:00)

Okean-O - Pass Details

Date: 22 November 2019
Orbit: 639 x 641 km, 98.2° (Epoch: 08 December)

Event Time Altitude Azimuth Distance (km) Brightness Sun altitude
Rises 16:35:39 0° 158° (SSE) 2,936 6.0 -12.3°
Reaches altitude 10° 16:37:51 10° 156° (SSE) 2,031 5.1 -12.6°
Maximum altitude 16:42:15 74° 73° (ENE) 673 2.5 -13.3°
Drops below altitude 10° 16:46:42 10° 348° (NNW) 2,045 5.2 -14.0°
Sets 16:48:55 0° 347° (NNW) 2,959 6.0 -14.3°
